CW2840 Weather Reports


time (UTC)temp
C
wind
direction
speed
KPH
gust
KPH
rain 1hr
cm
rain 24hr
cm
rain mn
cm
humidity
%
barometer
mb
20260505181604 27 185 11.3 20.9 0.00 0.00 0.00 72 1009.1
20260505180103 27 178 11.3 25.7 0.00 0.00 0.00 72 1009.1
20260505174604 27 197 9.7 32.2 0.00 0.00 0.00 72 1009.2
20260505173103 26 216 9.7 22.5 0.00 0.00 0.00 75 1009.5
20260505171603 26 203 6.4 22.5 0.00 0.00 0.00 76 1009.6
20260505170104 26 193 8.0 17.7 0.00 0.00 0.00 77 1009.6
20260505164603 26 224 8.0 17.7 0.00 0.00 0.00 76 1009.5
20260505163103 26 196 8.0 14.5 0.00 0.00 0.00 76 1009.8
20260505161603 26 216 4.8 20.9 0.00 0.00 0.00 76 1009.7
20260505160104 25 188 9.7 17.7 0.00 0.00 0.00 77 1009.6
20260505151603 25 165 8.0 17.7 0.00 0.00 0.00 78 1009.4
20260505150104 25 179 12.9 22.5 0.00 0.00 0.00 78 1009.4
20260505130104 23 127 8.0 20.9 0.00 0.00 0.00 82 1009.2
20260505124602 23 175 6.4 20.9 0.00 0.00 0.00 83 1008.4
20260505124458 22 161 8.0 17.7 0.00 0.00 0.00 83 1008.8
20260505121601 22 195 3.2 14.5 0.00 0.00 0.00 84 1008.8
20260505114601 22 178 8.0 14.5 0.00 0.00 0.00 83 1008.4
20260505114450 22 178 3.2 11.3 0.00 0.00 0.00 83 1008.5
20260505111600 22 159 6.4 14.5 0.00 0.00 0.00 84 1008.5
20260505101559 22 199 4.8 14.5 0.00 0.00 0.00 83 1008.5
20260505100059 21 192 6.4 17.7 0.00 0.00 0.00 83 1008.7
20260505094559 21 182 3.2 14.5 0.00 0.00 0.00 83 1008.6
20260505093100 21 180 4.8 14.5 0.00 0.00 0.00 83 1008.7
20260505091558 21 192 4.8 11.3 0.00 0.00 0.00 83 1009.0
20260505090754 21 209 3.2 11.3 0.00 0.00 0.00 83 1008.9
20260505084557 21 171 6.4 14.5 0.00 0.00 0.00 82 1008.9
20260505083058 21 169 4.8 14.5 0.00 0.00 0.00 81 1009.0
20260505081557 21 168 6.4 14.5 0.00 0.00 0.00 81 1009.2
20260505080056 22 182 3.2 17.7 0.00 0.00 0.00 80 1009.3
20260505075248 21 157 6.4 14.5 0.00 0.00 0.00 80 1009.4
20260505073057 21 192 4.8 14.5 0.00 0.00 0.00 80 1009.4
20260505071555 21 243 4.8 14.5 0.00 0.00 0.00 79 1009.7
20260505070057 21 212 6.4 14.5 0.00 0.00 0.00 79 1009.7
20260505064554 21 180 4.8 11.3 0.00 0.00 0.00 78 1009.9
20260505063057 21 217 6.4 14.5 0.00 0.00 0.00 78 1010.1
20260505061555 21 176 4.8 11.3 0.00 0.00 0.00 78 1010.2
20260505060053 21 178 3.2 8.0 0.00 0.00 0.00 77 1010.2
20260505054553 21 169 3.2 11.3 0.00 0.00 0.00 77 1010.2
20260505053054 22 188 4.8 11.3 0.00 0.00 0.00 76 1010.4
20260505051552 22 169 6.4 17.7 0.00 0.00 0.00 75 1010.6
20260505040050 23 118 8.0 35.4 0.00 0.00 0.00 71 1010.8
20260505035406 23 165 11.3 32.2 0.00 0.00 0.00 71 1010.8
20260505035149 23 186 9.7 20.9 0.00 0.00 0.00 71 1011.0
20260505032248 23 141 9.7 22.5 0.00 0.00 0.00 71 1011.0
20260505030050 23 182 6.4 25.7 0.00 0.00 0.00 70 1010.9
20260505024549 23 172 8.0 20.9 0.00 0.00 0.00 70 1010.7
20260505023049 23 173 6.4 20.9 0.00 0.00 0.00 69 1010.7
20260505022244 23 161 9.7 25.7 0.00 0.00 0.00 69 1010.7
20260505020750 23 148 8.0 17.7 0.00 0.00 0.00 69 1010.5
20260505014548 23 147 6.4 17.7 0.00 0.00 0.00 69 1010.4
20260505013047 23 175 8.0 14.5 0.00 0.00 0.00 69 1010.2
20260505011548 23 188 6.4 14.5 0.00 0.00 0.00 68 1010.2
20260505010047 24 171 4.8 17.7 0.00 0.00 0.00 66 1010.3
20260505004546 25 168 3.2 14.5 0.00 0.00 0.00 65 1010.2
20260505003048 25 166 9.7 14.5 0.00 0.00 0.00 65 1010.1
20260505001546 25 178 6.4 14.5 0.00 0.00 0.00 64 1010.1
20260505000740 25 179 6.4 17.7 0.00 0.00 0.00 63 1010.3
20260504234545 26 158 9.7 25.7 0.00 0.00 0.00 61 1010.3
20260504233045 26 161 9.7 25.7 0.00 0.00 0.00 59 1010.3
20260504231544 26 186 6.4 25.7 0.00 0.00 0.00 57 1010.6
20260504230044 26 172 3.2 17.7 0.00 0.00 0.00 55 1010.7
20260504224545 27 175 9.7 25.7 0.00 0.00 0.00 55 1010.7
20260504223044 27 185 11.3 20.9 0.00 0.00 0.00 53 1010.9
20260504221543 27 169 6.4 17.7 0.00 0.00 0.00 53 1011.0
20260504220738 27 165 9.7 17.7 0.00 0.00 0.00 53 1011.0
20260504214542 27 141 8.0 20.9 0.00 0.00 0.00 52 1011.1
20260504213042 27 141 6.4 14.5 0.00 0.00 0.00 51 1011.3
20260504211543 27 113 8.0 22.5 0.00 0.00 0.00 50 1011.5
20260504210042 27 220 11.3 25.7 0.00 0.00 0.00 50 1011.7
20260504204541 28 162 4.8 20.9 0.00 0.00 0.00 51 1012.1
20260504203041 28 176 4.8 25.7 0.00 0.00 0.00 50 1012.2
20260504201541 28 241 8.0 17.7 0.00 0.00 0.00 47 1012.5
20260504200740 28 216 8.0 20.9 0.00 0.00 0.00 50 1012.8
20260504194539 27 171 8.0 22.5 0.00 0.00 0.00 49 1013.1
20260504193038 27 224 12.9 22.5 0.00 0.00 0.00 50 1013.2
20260504191538 27 107 6.4 17.7 0.00 0.00 0.00 51 1013.3
20260504190038 27 152 8.0 20.9 0.00 0.00 0.00 50 1013.8
20260504184538 27 159 14.5 22.5 0.00 0.00 0.00 49 1013.8
20260504183037 26 175 9.7 22.5 0.00 0.00 0.00 51 1013.9